GW0996 Weather Reports


time (UTC)temp
C
wind
direction
speed
KPH
gust
KPH
rain 1hr
cm
rain 24hr
cm
rain mn
cm
humidity
%
barometer
mb
20260904101925 35 163 0.0 1.6 0.00 0.00 0.00 29 1018.3
20260904101426 34 163 0.0 1.6 0.00 0.00 0.00 31 1018.4
20260904100924 33 178 1.6 1.6 0.00 0.00 0.00 33 1018.6
20260904100425 33 145 1.6 1.6 0.00 0.00 0.00 33 1018.6
20260904095425 33 134 0.0 1.6 0.00 0.00 0.00 36 1018.4
20260904094424 32 134 0.0 1.6 0.00 0.00 0.00 39 1018.5
20260904093924 32 134 0.0 1.6 0.00 0.00 0.00 39 1018.6
20260904093421 31 135 0.0 1.6 0.00 0.00 0.00 41 1018.9
20260904092924 31 135 1.6 1.6 0.00 0.00 0.00 42 1018.9
20260904092422 31 136 0.0 1.6 0.00 0.00 0.00 42 1018.8
20260904091925 31 128 0.0 1.6 0.00 0.00 0.00 45 1018.8
20260904091424 31 128 0.0 0.0 0.00 0.00 0.00 42 1019.0
20260904090925 30 128 0.0 1.6 0.00 0.00 0.00 43 1018.9
20260904090422 30 128 1.6 1.6 0.00 0.00 0.00 42 1019.0
20260904085930 30 130 0.0 0.0 0.00 0.00 0.00 44 1019.1
20260904085422 30 130 0.0 1.6 0.00 0.00 0.00 45 1019.1
20260904084921 29 130 0.0 1.6 0.00 0.00 0.00 43 1019.1
20260904084424 30 292 0.0 0.0 0.00 0.00 0.00 43 1019.0
20260904083422 28 292 0.0 0.0 0.00 0.00 0.00 45 1019.1
20260904082421 28 292 0.0 0.0 0.00 0.00 0.00 53 1019.2
20260904081421 27 291 0.0 0.0 0.00 0.00 0.00 53 1019.0
20260904080921 26 291 0.0 0.0 0.00 0.00 0.00 57 1019.0
20260904080424 26 291 0.0 1.6 0.00 0.00 0.00 57 1019.0
20260904075920 26 292 0.0 1.6 0.00 0.00 0.00 55 1019.0
20260904075430 25 292 0.0 0.0 0.00 0.00 0.00 58 1019.1
20260904074921 25 292 0.0 0.0 0.00 0.00 0.00 58 1019.1
20260904074422 25 291 0.0 0.0 0.00 0.00 0.00 59 1018.9
20260904073920 24 292 0.0 0.0 0.00 0.00 0.00 61 1019.0
20260904072921 25 289 0.0 0.0 0.00 0.00 0.00 60 1018.9
20260904072420 23 289 0.0 0.0 0.00 0.00 0.00 60 1019.1
20260904071928 22 289 0.0 0.0 0.00 0.00 0.00 65 1019.1
20260904071423 22 289 0.0 0.0 0.00 0.00 0.00 66 1019.1
20260904070924 21 289 0.0 0.0 0.00 0.00 0.00 69 1019.1
20260904065923 21 289 0.0 0.0 0.00 0.00 0.00 69 1019.1
20260904065425 20 289 0.0 0.0 0.00 0.00 0.00 72 1019.1
20260904064921 20 289 0.0 0.0 0.00 0.00 0.00 72 1019.0
20260904064421 20 289 0.0 0.0 0.00 0.00 0.00 73 1018.9
20260904063923 20 289 0.0 0.0 0.00 0.00 0.00 73 1019.0
20260904063346 19 289 0.0 0.0 0.00 0.00 0.00 73 1018.8
20260904062847 19 289 0.0 0.0 0.00 0.00 0.00 74 1019.0
20260904061837 19 289 0.0 0.0 0.00 0.00 0.00 73 1018.9
20260904061339 18 289 0.0 0.0 0.00 0.00 0.00 76 1018.8
20260904060832 18 289 0.0 0.0 0.00 0.00 0.00 76 1018.8
20260904055835 17 289 0.0 0.0 0.00 0.00 0.00 78 1018.9
20260904055339 17 288 0.0 1.6 0.00 0.00 0.00 79 1018.9
20260904054338 16 290 0.0 0.0 0.00 0.00 0.00 84 1018.8
20260904053837 15 291 0.0 1.6 0.00 0.00 0.00 86 1018.9
20260904053336 15 291 0.0 1.6 0.00 0.00 0.00 86 1018.9
20260904052837 15 291 1.6 1.6 0.00 0.00 0.00 87 1019.0
20260904052338 15 291 0.0 0.0 0.00 0.00 0.00 87 1018.9
20260904051836 15 291 0.0 0.0 0.00 0.00 0.00 86 1018.9
20260904051338 15 291 0.0 0.0 0.00 0.00 0.00 86 1018.9
20260904050838 15 291 0.0 0.0 0.00 0.00 0.00 86 1018.7
20260904050335 15 291 0.0 0.0 0.00 0.00 0.00 85 1018.7
20260904045840 15 291 0.0 0.0 0.00 0.00 0.00 85 1018.8
20260904045336 15 291 0.0 0.0 0.00 0.00 0.00 85 1018.9
20260904044836 15 291 0.0 0.0 0.00 0.00 0.00 85 1018.6
20260904044335 15 291 0.0 0.0 0.00 0.00 0.00 85 1018.7
20260904043834 15 291 0.0 0.0 0.00 0.00 0.00 85 1018.7
20260904043337 15 291 0.0 0.0 0.00 0.00 0.00 85 1018.7
20260904042325 15 291 0.0 0.0 0.00 0.00 0.00 84 1018.7
20260904041825 15 291 0.0 1.6 0.00 0.00 0.00 83 1018.5
20260904041303 15 291 0.0 1.6 0.00 0.00 0.00 84 1018.4
20260904040756 15 291 0.0 0.0 0.00 0.00 0.00 84 1018.5
20260904040242 15 291 0.0 0.0 0.00 0.00 0.00 84 1018.5
20260904035732 15 291 0.0 0.0 0.00 0.00 0.00 84 1018.4
20260904035222 15 291 0.0 0.0 0.00 0.00 0.00 84 1018.4
20260904034720 15 291 0.0 0.0 0.00 0.00 0.00 83 1018.6
20260904034226 15 291 0.0 0.0 0.00 0.00 0.00 83 1018.5
20260904033721 16 291 0.0 0.0 0.00 0.00 0.00 82 1018.6
20260904033215 16 291 0.0 0.0 0.00 0.00 0.00 83 1018.4
20260904032709 15 291 0.0 0.0 0.00 0.00 0.00 83 1018.3
20260904032210 16 291 0.0 0.0 0.00 0.00 0.00 82 1018.5
20260904031703 16 293 0.0 0.0 0.00 0.00 0.00 81 1018.4
20260904031157 16 293 0.0 0.0 0.00 0.00 0.00 81 1018.4
20260904030649 16 293 0.0 0.0 0.00 0.00 0.00 81 1018.4
20260904030139 16 293 0.0 0.0 0.00 0.00 0.00 81 1018.2
20260904025623 16 293 0.0 0.0 0.00 0.00 0.00 80 1018.3
20260904025126 16 293 0.0 0.0 0.00 0.00 0.00 80 1018.2
20260904024620 16 293 0.0 1.6 0.00 0.00 0.00 79 1018.2
20260904024122 16 293 0.0 1.6 0.00 0.00 0.00 79 1018.3
20260904023616 16 293 0.0 3.2 0.00 0.00 0.00 79 1018.2
20260904022553 16 291 0.0 1.6 0.00 0.00 0.00 78 1018.4
20260904022047 16 291 0.0 1.6 0.00 0.00 0.00 78 1018.3
20260904021525 16 291 0.0 1.6 0.00 0.00 0.00 78 1018.4
20260904021024 16 290 0.0 0.0 0.00 0.00 0.00 78 1018.2
20260904020521 17 290 0.0 0.0 0.00 0.00 0.00 78 1018.2
20260904020023 17 290 0.0 0.0 0.00 0.00 0.00 77 1018.2
20260904015521 17 291 0.0 0.0 0.00 0.00 0.00 77 1018.2
20260904014524 17 291 0.0 0.0 0.00 0.00 0.00 75 1018.2
20260904014017 17 291 0.0 0.0 0.00 0.00 0.00 75 1018.4
20260904013510 17 291 0.0 0.0 0.00 0.00 0.00 75 1018.3
20260904013013 17 290 0.0 0.0 0.00 0.00 0.00 76 1018.3
20260904012503 17 290 0.0 0.0 0.00 0.00 0.00 76 1018.0
20260904011957 17 290 0.0 0.0 0.00 0.00 0.00 76 1018.3
20260904011457 17 290 0.0 0.0 0.00 0.00 0.00 76 1018.2
20260904010945 17 291 0.0 0.0 0.00 0.00 0.00 75 1018.1
20260904010444 17 291 0.0 0.0 0.00 0.00 0.00 76 1018.3
20260904005947 17 291 0.0 0.0 0.00 0.00 0.00 77 1018.3
20260904005444 17 291 0.0 0.0 0.00 0.00 0.00 76 1018.2
20260904004937 17 291 0.0 1.6 0.00 0.00 0.00 76 1018.3
20260904004433 17 291 0.0 1.6 0.00 0.00 0.00 75 1018.0
20260904003933 17 290 0.0 0.0 0.00 0.00 0.00 76 1018.3
20260904001923 17 290 0.0 0.0 0.00 0.00 0.00 73 1018.2
20260904001420 17 291 0.0 0.0 0.00 0.00 0.00 72 1018.5
20260904000425 17 291 0.0 0.0 0.00 0.00 0.00 72 1018.1
20260903235423 18 291 0.0 0.0 0.00 0.00 0.00 71 1018.2
20260903234921 18 291 0.0 1.6 0.00 0.00 0.00 70 1018.2
20260903234411 18 292 0.0 1.6 0.00 0.00 0.00 70 1018.4
20260903233909 18 291 0.0 0.0 0.00 0.00 0.00 69 1018.2
20260903232847 18 291 0.0 0.0 0.00 0.00 0.00 69 1017.9
20260903232349 18 291 0.0 0.0 0.00 0.00 0.00 68 1018.0
20260903231840 18 291 0.0 3.2 0.00 0.00 0.00 67 1018.1
20260903231342 18 292 0.0 3.2 0.00 0.00 0.00 66 1018.1
20260903230349 19 239 0.0 1.6 0.00 0.00 0.00 66 1018.2
20260903225837 19 240 0.0 1.6 0.00 0.00 0.00 65 1018.0
20260903225342 19 240 1.6 1.6 0.00 0.00 0.00 66 1018.0
20260903224324 19 285 0.0 1.6 0.00 0.00 0.00 64 1017.8
20260903223824 19 299 0.0 1.6 0.00 0.00 0.00 65 1017.9
20260903223327 19 299 0.0 3.2 0.00 0.00 0.00 65 1017.9
20260903222314 20 298 0.0 1.6 0.00 0.00 0.00 65 1017.8
20260903221812 20 299 0.0 1.6 0.00 0.00 0.00 64 1017.9
20260903221258 19 299 0.0 1.6 0.00 0.00 0.00 63 1017.9
20260903220757 20 299 0.0 0.0 0.00 0.00 0.00 64 1017.7
20260903220257 20 299 0.0 0.0 0.00 0.00 0.00 65 1017.6
20260903215745 20 299 0.0 1.6 0.00 0.00 0.00 63 1017.6
20260903215245 20 299 0.0 1.6 0.00 0.00 0.00 64 1017.6
20260903214233 20 301 0.0 1.6 0.00 0.00 0.00 65 1017.3
20260903213736 20 301 0.0 1.6 0.00 0.00 0.00 65 1017.3
20260903213233 20 300 0.0 0.0 0.00 0.00 0.00 65 1017.5
20260903212733 20 300 0.0 1.6 0.00 0.00 0.00 65 1017.6
20260903212222 20 305 0.0 1.6 0.00 0.00 0.00 65 1017.4
20260903211721 21 305 0.0 1.6 0.00 0.00 0.00 65 1017.4
20260903211216 21 305 0.0 1.6 0.00 0.00 0.00 65 1017.4
20260903210708 21 305 0.0 0.0 0.00 0.00 0.00 64 1017.4
20260903205200 21 305 0.0 1.6 0.00 0.00 0.00 63 1017.3
20260903204657 21 307 0.0 3.2 0.00 0.00 0.00 63 1017.1
20260903204152 22 309 0.0 4.8 0.00 0.00 0.00 63 1017.2
20260903203646 22 310 0.0 4.8 0.00 0.00 0.00 63 1017.0
20260903203145 21 310 1.6 3.2 0.00 0.00 0.00 64 1017.1
20260903202639 21 315 0.0 0.0 0.00 0.00 0.00 65 1017.1
20260903202132 21 315 0.0 0.0 0.00 0.00 0.00 64 1017.1
20260903201635 21 315 0.0 0.0 0.00 0.00 0.00 64 1017.0
20260903201133 22 315 0.0 0.0 0.00 0.00 0.00 63 1016.8
20260903200636 22 315 0.0 0.0 0.00 0.00 0.00 62 1016.9
20260903200138 22 315 0.0 0.0 0.00 0.00 0.00 62 1016.8
20260903195635 22 315 0.0 0.0 0.00 0.00 0.00 61 1017.0
20260903195135 23 315 0.0 0.0 0.00 0.00 0.00 60 1016.9
20260903194638 23 315 0.0 1.6 0.00 0.00 0.00 60 1016.8
20260903194134 23 315 0.0 1.6 0.00 0.00 0.00 59 1016.8
20260903192622 23 326 0.0 1.6 0.00 0.00 0.00 57 1017.0
20260903191622 25 324 0.0 1.6 0.00 0.00 0.00 56 1016.9
20260903191121 25 324 0.0 1.6 0.00 0.00 0.00 55 1016.8
20260903190623 25 324 0.0 1.6 0.00 0.00 0.00 53 1016.9
20260903190124 26 323 0.0 1.6 0.00 0.00 0.00 52 1016.8
20260903185624 26 323 0.0 1.6 0.00 0.00 0.00 50 1016.7
20260903184553 27 312 0.0 1.6 0.00 0.00 0.00 47 1016.5
20260903183551 28 312 0.0 3.2 0.00 0.00 0.00 44 1016.4
20260903181526 30 333 6.4 9.7 0.00 0.00 0.00 41 1016.0
20260903181021 30 318 1.6 9.7 0.00 0.00 0.00 40 1015.8
20260903180520 30 299 1.6 11.3 0.00 0.00 0.00 40 1015.9
20260903180023 30 315 3.2 11.3 0.00 0.00 0.00 39 1015.7
20260903175023 31 306 0.0 9.7 0.00 0.00 0.00 37 1015.8
20260903174526 31 312 0.0 11.3 0.00 0.00 0.00 36 1015.6
20260903174023 31 325 3.2 11.3 0.00 0.00 0.00 35 1015.6
20260903173524 31 308 6.4 11.3 0.00 0.00 0.00 35 1015.5
20260903173026 31 312 1.6 6.4 0.00 0.00 0.00 36 1015.7
20260903172524 31 296 0.0 6.4 0.00 0.00 0.00 36 1015.4
20260903172012 31 301 3.2 6.4 0.00 0.00 0.00 35 1015.4
20260903170945 31 313 1.6 6.4 0.00 0.00 0.00 35 1015.4
20260903170445 31 306 4.8 6.4 0.00 0.00 0.00 34 1015.3
20260903165954 32 281 0.0 11.3 0.00 0.00 0.00 34 1015.1
20260903165438 32 287 0.0 12.9 0.00 0.00 0.00 34 1015.1
20260903164934 32 317 1.6 12.9 0.00 0.00 0.00 33 1015.2
20260903164433 32 314 1.6 9.7 0.00 0.00 0.00 34 1015.1
20260903162936 32 304 1.6 9.7 0.00 0.00 0.00 32 1015.2
20260903162437 32 314 0.0 9.7 0.00 0.00 0.00 32 1015.4
20260903161937 32 297 4.8 9.7 0.00 0.00 0.00 31 1015.1
20260903161439 32 341 4.8 9.7 0.00 0.00 0.00 32 1015.2
20260903160934 33 305 0.0 6.4 0.00 0.00 0.00 32 1015.1
20260903160435 33 284 6.4 6.4 0.00 0.00 0.00 31 1015.2
20260903155924 33 308 1.6 6.4 0.00 0.00 0.00 31 1015.2
20260903155426 33 315 3.2 6.4 0.00 0.00 0.00 31 1015.2
20260903154922 33 305 3.2 6.4 0.00 0.00 0.00 31 1015.1
20260903154423 33 30 1.6 3.2 0.00 0.00 0.00 32 1015.0
20260903153924 33 105 0.0 3.2 0.00 0.00 0.00 31 1015.0
20260903153422 33 87 0.0 4.8 0.00 0.00 0.00 31 1015.1
20260903152924 33 352 1.6 6.4 0.00 0.00 0.00 31 1015.2
20260903152410 33 47 0.0 9.7 0.00 0.00 0.00 32 1015.3
20260903151907 33 91 1.6 12.9 0.00 0.00 0.00 30 1015.2
20260903151408 33 307 3.2 12.9 0.00 0.00 0.00 30 1015.0
20260903150855 33 331 8.0 11.3 0.00 0.00 0.00 30 1015.3
20260903150356 33 335 6.4 9.7 0.00 0.00 0.00 31 1015.4
20260903145856 33 306 0.0 9.7 0.00 0.00 0.00 32 1015.5
20260903145352 33 30 0.0 6.4 0.00 0.00 0.00 33 1015.4
20260903144346 33 330 3.2 12.9 0.00 0.00 0.00 32 1015.4
20260903143835 33 311 3.2 9.7 0.00 0.00 0.00 33 1015.4
20260903143335 33 100 0.0 11.3 0.00 0.00 0.00 33 1015.1
20260903142844 33 330 1.6 11.3 0.00 0.00 0.00 33 1015.3
20260903141832 33 314 3.2 17.7 0.00 0.00 0.00 33 1015.4
20260903141332 33 13 1.6 11.3 0.00 0.00 0.00 31 1015.3
20260903140832 34 313 3.2 11.3 0.00 0.00 0.00 31 1015.3
20260903140332 34 134 0.0 3.2 0.00 0.00 0.00 32 1015.3
20260903135834 34 158 0.0 1.6 0.00 0.00 0.00 31 1015.6
20260903135332 35 170 0.0 1.6 0.00 0.00 0.00 31 1015.3
20260903134332 35 127 0.0 1.6 0.00 0.00 0.00 30 1015.4
20260903133836 36 100 0.0 1.6 0.00 0.00 0.00 29 1015.6
20260903133331 36 250 0.0 1.6 0.00 0.00 0.00 30 1015.4
20260903132338 36 310 0.0 9.7 0.00 0.00 0.00 31 1015.6
20260903131831 36 218 1.6 3.2 0.00 0.00 0.00 29 1015.5
20260903131333 36 69 0.0 3.2 0.00 0.00 0.00 30 1015.5
20260903130833 35 295 1.6 12.9 0.00 0.00 0.00 31 1015.4
20260903125833 35 17 1.6 9.7 0.00 0.00 0.00 32 1015.7
20260903125335 34 343 1.6 12.9 0.00 0.00 0.00 33 1015.9
20260903124338 35 310 6.4 12.9 0.00 0.00 0.00 31 1015.8
20260903123832 35 55 0.0 9.7 0.00 0.00 0.00 32 1015.8
20260903123332 35 313 1.6 6.4 0.00 0.00 0.00 31 1015.9
20260903122838 35 308 0.0 6.4 0.00 0.00 0.00 32 1016.0
20260903122335 35 50 0.0 1.6 0.00 0.00 0.00 31 1015.9
20260903121837 34 12 0.0 3.2 0.00 0.00 0.00 34 1016.1
20260903121334 34 39 0.0 3.2 0.00 0.00 0.00 35 1016.0
20260903120836 33 336 0.0 4.8 0.00 0.00 0.00 36 1015.9
20260903120336 33 318 3.2 9.7 0.00 0.00 0.00 34 1016.0
20260903115838 34 296 3.2 9.7 0.00 0.00 0.00 34 1016.3
20260903115335 34 149 1.6 3.2 0.00 0.00 0.00 33 1016.2
20260903114335 34 121 1.6 3.2 0.00 0.00 0.00 33 1016.1
20260903113839 34 97 1.6 3.2 0.00 0.00 0.00 34 1016.2
20260903113335 35 149 1.6 1.6 0.00 0.00 0.00 33 1016.3
20260903112836 35 158 0.0 1.6 0.00 0.00 0.00 34 1016.4
20260903112328 34 232 0.0 3.2 0.00 0.00 0.00 34 1016.4
20260903111325 34 127 0.0 3.2 0.00 0.00 0.00 36 1016.6
20260903110822 34 153 0.0 1.6 0.00 0.00 0.00 35 1016.8
20260903110322 33 153 0.0 1.6 0.00 0.00 0.00 36 1016.8
20260903105823 33 228 1.6 1.6 0.00 0.00 0.00 35 1016.8
20260903105326 34 166 0.0 1.6 0.00 0.00 0.00 36 1017.1
20260903104822 34 220 1.6 1.6 0.00 0.00 0.00 37 1017.1
20260903104322 33 132 0.0 3.2 0.00 0.00 0.00 38 1017.1
20260903103823 33 132 0.0 3.2 0.00 0.00 0.00 39 1017.2
20260903103329 33 147 0.0 1.6 0.00 0.00 0.00 40 1017.4
20260903102822 32 152 0.0 3.2 0.00 0.00 0.00 44 1017.5